K6OUA-11 Weather Reports


time (UTC)temp
C
wind
direction
speed
KPH
gust
KPH
rain 1hr
cm
rain 24hr
cm
rain mn
cm
humidity
%
barometer
mb
20170227154200 8 135 1.6 3.2 0.00 0.00 0.00 85 1005.5
20170227153859 8 94 1.6 1.6 0.00 0.00 0.00 85 1005.5
20170227153557 8 135 0.0 3.2 0.00 0.00 0.00 84 1005.7
20170227153256 8 90 1.6 3.2 0.00 0.00 0.00 84 1005.6
20170227152957 8 112 0.0 3.2 0.00 0.00 0.00 85 1005.6
20170227152654 8 96 3.2 3.2 0.00 0.00 0.00 84 1005.7
20170227152353 8 135 0.0 3.2 0.00 0.00 0.00 85 1005.6
20170227151751 8 180 0.0 0.0 0.00 0.00 0.00 84 1005.7
20170227151149 8 180 0.0 1.6 0.00 0.00 0.00 85 1005.7
20170227150847 8 90 0.0 1.6 0.00 0.00 0.00 84 1005.6
20170227150547 8 90 0.0 1.6 0.00 0.00 0.00 84 1005.5
20170227145944 8 45 1.6 3.2 0.00 0.00 0.00 84 1005.5
20170227145643 8 45 1.6 3.2 0.00 0.00 0.00 84 1005.4
20170227145342 8 36 1.6 4.8 0.00 0.00 0.00 84 1005.3
20170227145041 8 56 1.6 4.8 0.00 0.00 0.00 84 1005.3
20170227144740 8 47 1.6 6.4 0.00 0.00 0.00 85 1005.3
20170227144439 8 49 6.4 6.4 0.00 0.00 0.00 85 1005.3
20170227144138 8 85 3.2 4.8 0.00 0.00 0.00 85 1005.1
20170227143837 8 76 4.8 8.0 0.00 0.00 0.00 85 1005.2
20170227143538 8 74 6.4 6.4 0.00 0.00 0.00 85 1005.0
20170227143240 8 49 4.8 4.8 0.00 0.00 0.00 85 1005.2
20170227142934 8 72 4.8 6.4 0.00 0.00 0.00 85 1005.2
20170227142634 8 96 3.2 8.0 0.00 0.00 0.00 85 1005.0
20170227142331 8 92 3.2 8.0 0.00 0.00 0.00 86 1005.2
20170227142030 8 81 6.4 6.4 0.00 0.00 0.00 86 1005.3
20170227141729 8 85 6.4 6.4 0.00 0.00 0.00 86 1005.2
20170227141428 8 81 1.6 6.4 0.00 0.00 0.00 86 1005.3
20170227141127 8 90 1.6 6.4 0.00 0.00 0.00 86 1005.4
20170227140826 8 87 4.8 6.4 0.00 0.00 0.00 86 1005.3
20170227140524 8 87 3.2 4.8 0.00 0.00 0.00 86 1005.3
20170227140223 8 63 3.2 6.4 0.00 0.00 0.00 86 1005.3
20170227135924 8 65 4.8 6.4 0.00 0.00 0.00 86 1005.5
20170227135621 8 112 3.2 6.4 0.00 0.00 0.00 86 1005.4
20170227135320 8 87 1.6 6.4 0.00 0.00 0.00 86 1005.5
20170227134718 8 63 4.8 4.8 0.00 0.00 0.00 86 1005.4
20170227134417 8 65 3.2 4.8 0.00 0.00 0.00 86 1005.5
20170227134117 8 54 3.2 8.0 0.00 0.00 0.00 86 1005.4
20170227133814 8 74 6.4 6.4 0.00 0.00 0.00 86 1005.5
20170227133513 8 85 3.2 6.4 0.00 0.00 0.00 86 1005.6
20170227133212 8 69 4.8 6.4 0.00 0.00 0.00 86 1005.7
20170227132912 8 74 3.2 6.4 0.00 0.00 0.00 85 1005.7
20170227132309 8 49 4.8 6.4 0.00 0.00 0.00 86 1005.9
20170227132009 8 6 1.6 3.2 0.00 0.00 0.00 86 1005.9
20170227131707 8 31 1.6 4.8 0.00 0.00 0.00 86 1005.9
20170227131406 8 42 1.6 4.8 0.00 0.00 0.00 86 1005.9
20170227131104 8 49 3.2 4.8 0.00 0.00 0.00 86 1006.0
20170227130803 8 47 3.2 4.8 0.00 0.00 0.00 86 1006.0
20170227130502 8 27 1.6 3.2 0.00 0.00 0.00 86 1006.1
20170227130201 8 47 3.2 6.4 0.00 0.00 0.00 86 1005.9
20170227125900 8 58 4.8 6.4 0.00 0.00 0.00 86 1006.0
20170227125559 8 65 3.2 6.4 0.00 0.00 0.00 86 1005.9
20170227125258 8 132 1.6 6.4 0.00 0.00 0.00 86 1005.9
20170227124957 8 69 4.8 9.7 0.00 0.00 0.00 86 1005.8
20170227124355 8 76 4.8 8.0 0.00 0.00 0.00 86 1005.8
20170227124053 8 65 3.2 8.0 0.00 0.00 0.00 87 1006.0
20170227123752 8 49 6.4 8.0 0.00 0.00 0.00 87 1006.0
20170227123150 8 90 1.6 6.4 0.00 0.00 0.00 87 1006.1
20170227122850 8 81 4.8 6.4 0.00 0.00 0.00 87 1006.0
20170227122548 8 92 3.2 8.0 0.00 0.00 0.00 87 1006.0
20170227122247 8 90 4.8 9.7 0.00 0.00 0.00 87 1006.0
20170227121947 8 40 9.7 9.7 0.00 0.00 0.00 87 1006.0
20170227121645 8 81 4.8 4.8 0.00 0.00 0.00 87 1006.1
20170227121343 8 54 4.8 4.8 0.00 0.00 0.00 87 1006.1
20170227121044 8 92 3.2 4.8 0.00 0.00 0.00 87 1006.1
20170227120440 8 45 4.8 4.8 0.00 0.00 0.00 88 1006.1
20170227120139 8 74 3.2 6.4 0.00 0.00 0.00 88 1006.0
20170227115839 8 47 4.8 6.4 0.00 0.00 0.00 88 1006.1
20170227115538 8 72 3.2 6.4 0.00 0.00 0.00 88 1006.0
20170227115236 8 90 3.2 6.4 0.00 0.00 0.00 88 1005.9
20170227114936 8 51 4.8 8.0 0.00 0.00 0.00 88 1006.0
20170227114633 8 47 4.8 8.0 0.00 0.00 0.00 88 1006.1
20170227114333 8 69 3.2 4.8 0.00 0.00 0.00 88 1006.1
20170227114031 8 103 3.2 4.8 0.00 0.00 0.00 88 1006.1
20170227113730 8 54 3.2 4.8 0.00 0.00 0.00 88 1006.1
20170227113429 8 45 1.6 6.4 0.00 0.00 0.00 88 1006.1
20170227113128 8 45 3.2 4.8 0.00 0.00 0.00 88 1006.2
20170227112827 8 51 3.2 4.8 0.00 0.00 0.00 88 1006.2
20170227112526 8 92 1.6 4.8 0.00 0.00 0.00 88 1006.2
20170227112225 8 90 3.2 4.8 0.00 0.00 0.00 89 1006.2
20170227111923 8 85 3.2 4.8 0.00 0.00 0.00 89 1006.2
20170227111622 8 130 1.6 4.8 0.00 0.00 0.00 89 1006.3
20170227111321 8 45 0.0 3.2 0.00 0.00 0.00 89 1006.3
20170227111020 8 45 0.0 3.2 0.00 0.00 0.00 88 1006.4
20170227110720 8 45 1.6 1.6 0.00 0.00 0.00 89 1006.3
20170227110418 8 135 1.6 1.6 0.00 0.00 0.00 88 1006.3
20170227110117 8 180 0.0 1.6 0.00 0.00 0.00 88 1006.5
20170227105817 8 45 0.0 1.6 0.00 0.00 0.00 88 1006.6
20170227105516 8 225 0.0 3.2 0.00 0.00 0.00 88 1006.5
20170227105214 8 270 0.0 1.6 0.00 0.00 0.00 88 1006.6
20170227104913 8 270 0.0 0.0 0.00 0.00 0.00 88 1006.6
20170227104613 8 270 0.0 1.6 0.00 0.00 0.00 88 1006.7
20170227104310 8 270 0.0 1.6 0.00 0.00 0.00 88 1006.7
20170227104009 8 135 0.0 0.0 0.00 0.00 0.00 88 1006.9
20170227103708 8 135 0.0 0.0 0.00 0.00 0.00 87 1006.9
20170227103408 8 135 0.0 0.0 0.00 0.00 0.00 87 1006.9
20170227103106 8 225 0.0 0.0 0.00 0.00 0.00 87 1006.9
20170227102203 8 292 0.0 0.0 0.00 0.00 0.00 87 1007.1
20170227101901 8 45 0.0 1.6 0.00 0.00 0.00 88 1007.1
20170227101600 8 13 0.0 1.6 0.00 0.00 0.00 87 1007.1
20170227101259 8 67 0.0 1.6 0.00 0.00 0.00 88 1007.1
20170227101004 8 225 0.0 0.0 0.00 0.00 0.00 87 1007.1
20170227100658 8 270 0.0 0.0 0.00 0.00 0.00 88 1007.2
20170227100356 8 270 0.0 1.6 0.00 0.00 0.00 87 1007.1
20170227100055 8 270 1.6 1.6 0.00 0.00 0.00 87 1007.3
20170227095755 8 270 0.0 1.6 0.00 0.00 0.00 87 1007.2
20170227095453 8 270 1.6 1.6 0.00 0.00 0.00 87 1007.2
20170227095151 8 270 1.6 3.2 0.00 0.00 0.00 87 1007.3
20170227094851 8 270 1.6 1.6 0.00 0.00 0.00 87 1007.3
20170227094551 8 270 1.6 1.6 0.00 0.00 0.00 86 1007.4
20170227094249 8 225 0.0 1.6 0.00 0.00 0.00 86 1007.5
20170227093948 8 270 0.0 1.6 0.00 0.00 0.00 86 1007.5
20170227093646 8 225 0.0 0.0 0.00 0.00 0.00 86 1007.5
20170227093345 8 270 0.0 0.0 0.00 0.00 0.00 86 1007.6
20170227093044 8 270 0.0 0.0 0.00 0.00 0.00 86 1007.5
20170227092441 8 45 0.0 0.0 0.00 0.00 0.00 86 1007.7
20170227092140 8 45 0.0 1.6 0.00 0.00 0.00 86 1007.7
20170227091839 8 45 0.0 0.0 0.00 0.00 0.00 86 1007.8
20170227091539 8 45 0.0 0.0 0.00 0.00 0.00 86 1007.9
20170227091237 8 45 0.0 0.0 0.00 0.00 0.00 86 1007.9
20170227090936 8 45 0.0 1.6 0.00 0.00 0.00 85 1007.9
20170227090635 8 45 0.0 1.6 0.00 0.00 0.00 85 1007.9
20170227090335 8 180 0.0 1.6 0.00 0.00 0.00 85 1007.9
20170227090034 8 45 0.0 1.6 0.00 0.00 0.00 85 1007.9
20170227085735 8 45 1.6 3.2 0.00 0.00 0.00 85 1008.0
20170227085129 8 54 3.2 3.2 0.00 0.00 0.00 86 1008.0
20170227084830 8 38 3.2 4.8 0.00 0.00 0.00 85 1007.9
20170227084528 8 45 1.6 3.2 0.00 0.00 0.00 86 1008.0
20170227084229 8 90 1.6 1.6 0.00 0.00 0.00 86 1008.0
20170227083925 8 119 1.6 4.8 0.00 0.00 0.00 86 1008.0
20170227083625 8 96 3.2 4.8 0.00 0.00 0.00 86 1008.0
20170227083323 8 99 1.6 4.8 0.00 0.00 0.00 85 1008.1
20170227082720 7 33 1.6 4.8 0.00 0.00 0.00 85 1008.0
20170227082420 7 135 0.0 1.6 0.00 0.00 0.00 85 1007.9
20170227081216 8 184 3.2 6.4 0.00 0.00 0.00 85 1008.0
20170227080916 8 49 4.8 4.8 0.00 0.00 0.00 84 1008.0
20170227080613 8 38 3.2 6.4 0.00 0.00 0.00 85 1008.1
20170227080313 8 33 3.2 4.8 0.00 0.00 0.00 85 1008.0
20170227080010 8 49 4.8 4.8 0.00 0.00 0.00 85 1007.9
20170227075709 8 29 3.2 4.8 0.00 0.00 0.00 84 1007.9
20170227075408 8 45 4.8 4.8 0.00 0.00 0.00 84 1008.0
20170227075108 8 2 1.6 3.2 0.00 0.00 0.00 84 1008.0
20170227074807 8 45 0.0 1.6 0.00 0.00 0.00 85 1008.1
20170227074505 8 0 0.0 3.2 0.00 0.00 0.00 84 1008.1
20170227074204 8 45 0.0 3.2 0.00 0.00 0.00 84 1008.2
20170227073602 8 182 0.0 1.6 0.00 0.00 0.00 84 1008.1
20170227073301 8 265 1.6 1.6 0.00 0.00 0.00 84 1008.1
20170227073001 8 180 0.0 3.2 0.00 0.00 0.00 84 1008.1
20170227072658 8 225 0.0 3.2 0.00 0.00 0.00 84 1008.0
20170227072357 8 195 1.6 8.0 0.00 0.00 0.00 84 1008.0
20170227072056 8 141 4.8 4.8 0.00 0.00 0.00 84 1008.0
20170227071154 8 119 4.8 4.8 0.00 0.00 0.00 84 1007.9
20170227070852 8 135 0.0 3.2 0.00 0.00 0.00 83 1008.0
20170227070551 8 130 3.2 3.2 0.00 0.00 0.00 83 1007.9
20170227070249 8 139 1.6 4.8 0.00 0.00 0.00 84 1008.0
20170227065948 8 135 3.2 4.8 0.00 0.00 0.00 84 1008.0
20170227065647 8 128 1.6 3.2 0.00 0.00 0.00 84 1007.9
20170227065046 8 141 3.2 8.0 0.00 0.00 0.00 83 1007.9
20170227064744 8 105 6.4 6.4 0.00 0.00 0.00 84 1007.8
20170227064443 8 110 4.8 4.8 0.00 0.00 0.00 84 1007.9
20170227063841 8 148 0.0 6.4 0.00 0.00 0.00 84 1008.1
20170227063233 8 72 6.4 6.4 0.00 0.00 0.00 84 1008.0
20170227062932 8 90 6.4 8.0 0.00 0.00 0.00 84 1008.1
20170227062631 8 90 4.8 9.7 0.00 0.00 0.00 84 1008.1
20170227062330 8 87 8.0 9.7 0.00 0.00 0.00 84 1008.0
20170227062029 8 81 6.4 8.0 0.00 0.00 0.00 85 1007.9
20170227061729 8 83 4.8 9.7 0.00 0.00 0.00 85 1008.0
20170227061427 8 78 8.0 9.7 0.00 0.00 0.00 85 1008.1
20170227061126 8 90 6.4 9.7 0.00 0.00 0.00 86 1008.0
20170227060825 8 103 4.8 9.7 0.00 0.00 0.00 85 1008.1
20170227060523 8 67 6.4 6.4 0.00 0.00 0.00 85 1008.1
20170227060222 8 69 3.2 8.0 0.00 0.00 0.00 86 1008.1
20170227055923 8 60 4.8 6.4 0.00 0.00 0.00 86 1008.1
20170227055620 8 83 3.2 8.0 0.00 0.00 0.00 86 1008.2
20170227055320 8 85 6.4 8.0 0.00 0.00 0.00 86 1008.1
20170227055018 8 38 3.2 6.4 0.00 0.00 0.00 86 1008.1
20170227054717 8 90 3.2 8.0 0.00 0.00 0.00 85 1008.1
20170227054419 8 65 4.8 8.0 0.00 0.00 0.00 86 1008.1
20170227054116 8 65 6.4 8.0 0.00 0.00 0.00 86 1008.0
20170227053814 8 60 4.8 6.4 0.00 0.00 0.00 85 1008.1
20170227053513 8 56 3.2 8.0 0.00 0.00 0.20 86 1007.9
20170227053211 8 40 6.4 8.0 0.00 0.00 0.20 86 1007.9
20170227052912 8 83 4.8 6.4 0.00 0.00 0.20 85 1007.9
20170227052308 8 81 8.0 9.7 0.00 0.00 0.20 86 1007.9
20170227052008 8 74 6.4 8.0 0.00 0.00 0.20 86 1007.9
20170227051706 8 72 3.2 9.7 0.00 0.00 0.20 85 1007.9
20170227051405 8 85 6.4 8.0 0.00 0.00 0.20 86 1007.9
20170227051103 8 87 8.0 8.0 0.00 0.00 0.20 85 1008.0
20170227050501 8 81 6.4 6.4 0.00 0.00 0.20 85 1008.0
20170227050200 8 51 4.8 8.0 0.00 0.00 0.20 85 1008.0
20170227045859 8 56 4.8 11.3 0.00 0.00 0.20 85 1008.0
20170227045258 8 49 6.4 8.0 0.00 0.00 0.20 84 1008.0
20170227044957 8 56 6.4 6.4 0.00 0.00 0.20 84 1008.0
20170227044656 8 49 4.8 4.8 0.00 0.00 0.20 85 1008.1
20170227044354 8 56 6.4 8.0 0.00 0.00 0.20 84 1008.0
20170227043753 8 108 1.6 6.4 0.00 0.00 0.20 84 1007.9
20170227043149 8 90 1.6 4.8 0.00 0.00 0.20 84 1007.7
20170227042849 8 90 3.2 4.8 0.00 0.00 0.20 84 1007.8
20170227042246 8 83 4.8 9.7 0.00 0.00 0.20 85 1007.9
20170227041945 8 87 4.8 6.4 0.00 0.00 0.20 85 1007.8
20170227041644 8 51 4.8 8.0 0.00 0.00 0.20 85 1007.8
20170227041344 8 60 4.8 6.4 0.00 0.00 0.20 85 1007.6
20170227041041 8 45 6.4 6.4 0.00 0.00 0.20 85 1007.7
20170227040741 8 49 4.8 4.8 0.00 0.00 0.20 85 1007.7
20170227040439 8 65 3.2 6.4 0.00 0.00 0.20 85 1007.6
20170227035837 8 45 3.2 3.2 0.00 0.00 0.20 84 1007.6
20170227035536 8 135 0.0 1.6 0.00 0.00 0.20 84 1007.8
20170227035236 8 90 0.0 1.6 0.00 0.00 0.20 84 1007.8
20170227034934 8 90 0.0 1.6 0.00 0.00 0.20 84 1007.8
20170227034632 8 135 0.0 0.0 0.00 0.00 0.20 84 1007.9
20170227034332 8 135 0.0 0.0 0.00 0.00 0.20 84 1007.8
20170227034030 8 135 0.0 3.2 0.00 0.00 0.20 84 1007.7
20170227033729 8 180 0.0 1.6 0.00 0.00 0.20 84 1007.7
20170227033430 8 180 0.0 3.2 0.00 0.00 0.20 84 1007.6
20170227032827 8 90 1.6 4.8 0.00 0.00 0.20 84 1007.6
20170227032525 8 74 3.2 4.8 0.00 0.00 0.20 84 1007.6
20170227032224 8 187 0.0 3.2 0.00 0.00 0.20 84 1007.5
20170227031924 8 135 0.0 3.2 0.00 0.00 0.20 83 1007.4
20170227031621 7 90 3.2 3.2 0.00 0.00 0.20 83 1007.4
20170227031320 7 225 0.0 0.0 0.00 0.00 0.20 82 1007.6
20170227031019 7 180 0.0 0.0 0.00 0.00 0.20 82 1007.5
20170227030718 8 180 0.0 0.0 0.00 0.00 0.20 82 1007.5
20170227030417 8 216 0.0 1.6 0.00 0.00 0.20 82 1007.5
20170227025515 8 90 0.0 1.6 0.00 0.00 0.20 81 1007.5
20170227025213 8 135 0.0 1.6 0.00 0.00 0.20 81 1007.2
20170227024911 8 45 1.6 3.2 0.00 0.00 0.20 81 1007.2
20170227024610 8 45 1.6 3.2 0.00 0.00 0.20 80 1007.1
20170227024309 8 49 1.6 1.6 0.00 0.00 0.20 80 1007.1
20170227024009 8 180 0.0 1.6 0.00 0.00 0.20 79 1007.3
20170227023707 8 180 0.0 1.6 0.00 0.00 0.20 79 1007.5
20170227023406 8 225 0.0 3.2 0.00 0.00 0.20 79 1007.5
20170227023106 8 225 0.0 3.2 0.00 0.00 0.20 79 1007.6
20170227021900 8 193 1.6 3.2 0.00 0.00 0.20 77 1007.5
20170227021559 9 225 0.0 1.6 0.00 0.00 0.20 77 1007.4
20170227021258 9 225 0.0 0.0 0.00 0.00 0.20 76 1007.3
20170227020957 9 247 0.0 0.0 0.00 0.00 0.20 76 1007.3
20170227020656 9 180 0.0 0.0 0.00 0.00 0.20 76 1007.3
20170227020355 10 180 0.0 0.0 0.00 0.00 0.20 75 1007.3
20170227015754 10 180 0.0 1.6 0.00 0.00 0.20 74 1007.5
20170227015452 10 180 0.0 1.6 0.00 0.00 0.20 74 1007.4
20170227015152 10 157 0.0 1.6 0.00 0.00 0.20 74 1007.5
20170227014849 10 180 0.0 0.0 0.00 0.00 0.20 73 1007.3
20170227014548 11 180 0.0 0.0 0.00 0.00 0.20 73 1007.4
20170227014247 11 150 0.0 4.8 0.00 0.00 0.20 73 1007.2
20170227013645 11 146 6.4 6.4 0.00 0.00 0.20 73 1007.1
20170227013344 11 225 0.0 6.4 0.00 0.00 0.20 73 1007.2
20170227013043 11 90 4.8 6.4 0.00 0.00 0.20 73 1007.0
20170227012743 11 168 3.2 6.4 0.00 0.00 0.20 72 1007.0
20170227012139 12 182 3.2 4.8 0.00 0.00 0.20 72 1007.0
20170227011537 12 184 3.2 6.4 0.00 0.00 0.20 72 1007.1
20170227011236 12 175 4.8 8.0 0.00 0.00 0.20 72 1007.3
20170227010935 12 184 6.4 8.0 0.00 0.00 0.20 71 1007.4
20170227010032 12 195 1.6 6.4 0.00 0.00 0.20 70 1007.3
20170227005730 12 173 6.4 6.4 0.00 0.00 0.20 70 1007.1
20170227005433 12 166 1.6 8.0 0.00 0.00 0.20 70 1007.1
20170227004827 12 159 3.2 6.4 0.00 0.00 0.20 68 1007.2
20170227004527 12 141 4.8 6.4 0.00 0.00 0.20 68 1007.1
20170227004225 12 130 4.8 11.3 0.00 0.00 0.20 68 1006.9
20170227003623 13 137 6.4 12.9 0.00 0.00 0.20 67 1006.9
20170227003322 13 117 8.0 11.3 0.00 0.00 0.20 67 1006.9
20170227002720 13 130 6.4 11.3 0.00 0.00 0.20 66 1007.0
20170227002420 13 108 11.3 11.3 0.00 0.00 0.20 65 1007.2
20170227002117 13 128 6.4 9.7 0.00 0.00 0.20 66 1007.1
20170227001515 13 141 4.8 16.1 0.00 0.00 0.20 66 1007.1
20170227001214 14 90 9.7 17.7 0.00 0.00 0.20 65 1007.1
20170227000913 14 108 11.3 16.1 0.00 0.00 0.20 65 1006.9
20170227000612 14 105 9.7 19.3 0.00 0.00 0.20 65 1006.9
20170227000312 14 123 16.1 16.1 0.00 0.00 0.20 64 1006.6
20170226235708 14 119 9.7 14.5 0.00 0.00 0.20 65 1006.9
20170226235407 14 119 9.7 17.7 0.00 0.00 0.20 65 1006.9
20170226235106 14 108 12.9 19.3 0.00 0.00 0.20 64 1006.9
20170226234806 14 103 14.5 19.3 0.00 0.00 0.20 65 1006.9
20170226234504 14 87 17.7 19.3 0.00 0.00 0.20 64 1006.9
20170226234203 15 99 9.7 16.1 0.00 0.00 0.20 63 1007.1
20170226233602 15 92 9.7 14.5 0.00 0.00 0.20 63 1007.0
20170226233301 15 99 9.7 14.5 0.00 0.00 0.20 62 1007.1
20170226233000 15 110 12.9 12.9 0.00 0.00 0.20 63 1007.1
20170226232657 15 135 6.4 17.7 0.00 0.00 0.20 62 1007.1
20170226232357 15 78 11.3 17.7 0.00 0.00 0.20 62 1007.1
20170226232055 15 76 14.5 17.7 0.00 0.00 0.20 62 1007.1
20170226231754 15 130 6.4 6.4 0.00 0.00 0.20 65 1007.2
20170226231454 15 175 3.2 12.9 0.00 0.00 0.20 65 1007.1
20170226231152 15 132 4.8 12.9 0.00 0.00 0.20 65 1007.2
20170226230851 15 110 9.7 9.7 0.00 0.00 0.20 66 1007.1
20170226230550 15 108 4.8 6.4 0.00 0.00 0.20 66 1007.2
20170226230248 15 175 6.4 8.0 0.00 0.00 0.20 67 1007.1
20170226225947 14 150 4.8 8.0 0.00 0.00 0.20 68 1007.0
20170226225647 14 128 8.0 9.7 0.00 0.00 0.20 68 1007.2
20170226225345 13 130 9.7 9.7 0.00 0.00 0.20 68 1007.1
20170226225046 13 101 4.8 6.4 0.00 0.00 0.20 68 1007.2
20170226224744 13 121 4.8 9.7 0.00 0.00 0.20 68 1007.2
20170226224443 13 139 3.2 8.0 0.00 0.00 0.20 68 1007.3
20170226223835 13 140 3.2 9.7 0.00 0.00 0.20 68 1007.3
20170226223534 13 92 8.0 9.7 0.00 0.00 0.20 68 1007.4
20170226223232 13 148 1.6 6.4 0.00 0.00 0.20 68 1007.3
20170226222933 13 130 4.8 9.7 0.00 0.00 0.20 67 1007.4
20170226222630 13 135 4.8 9.7 0.00 0.00 0.20 66 1007.4
20170226222335 13 105 9.7 17.7 0.00 0.00 0.20 66 1007.3
20170226222028 13 114 12.9 16.1 0.00 0.00 0.20 65 1007.4
20170226221727 13 92 9.7 16.1 0.00 0.00 0.20 64 1007.5
20170226221125 14 94 12.9 12.9 0.00 0.00 0.20 65 1007.4
20170226220824 14 114 6.4 14.5 0.00 0.00 0.20 65 1007.5
20170226220523 14 123 8.0 14.5 0.00 0.00 0.20 65 1007.3
20170226220222 14 110 8.0 14.5 0.00 0.00 0.20 65 1007.4
20170226215619 14 141 8.0 14.5 0.00 0.00 0.20 67 1007.4
20170226214716 13 90 12.9 17.7 0.00 0.00 0.20 65 1007.6
20170226213817 13 90 14.5 16.1 0.00 0.00 0.20 65 1007.6
20170226213213 13 87 8.0 12.9 0.00 0.00 0.20 65 1007.7
20170226212910 13 137 6.4 12.9 0.00 0.00 0.20 66 1007.6
20170226212612 13 141 8.0 16.1 0.00 0.00 0.20 65 1007.8
20170226212308 13 126 9.7 12.9 0.00 0.00 0.20 65 1007.8
20170226212007 13 126 8.0 17.7 0.00 0.00 0.20 65 1007.7
20170226211705 14 114 8.0 17.7 0.00 0.00 0.20 64 1007.8
20170226211013 15 90 14.5 17.7 0.00 0.00 0.20 62 1007.8
20170226210804 15 90 14.5 17.7 0.00 0.00 0.20 62 1007.8
20170226210700 15 112 9.7 17.7 0.00 0.00 0.20 64 1007.8
20170226210502 15 112 9.7 17.7 0.00 0.00 0.20 64 1007.8
20170226205758 14 100 9.7 14.5 0.00 0.00 0.20 65 1007.8
20170226205558 14 100 9.7 14.5 0.00 0.00 0.20 65 1007.8
20170226205257 14 144 11.3 17.7 0.00 0.00 0.20 64 1008.1
20170226205137 14 130 16.1 17.7 0.00 0.00 0.20 65 1008.1
20170226204955 14 130 16.1 17.7 0.00 0.00 0.20 65 1008.1
20170226204919 14 112 14.5 24.1 0.00 0.00 0.20 64 1007.9
20170226204654 14 112 14.5 24.1 0.00 0.00 0.20 64 1007.9
20170226204247 14 126 17.7 19.3 0.00 0.00 0.20 67 1008.0
20170226204053 14 126 17.7 19.3 0.00 0.00 0.20 67 1008.0
20170226204022 14 103 14.5 24.1 0.00 0.00 0.20 67 1008.0
20170226203750 14 78 17.7 20.9 0.00 0.00 0.20 66 1007.9
20170226203449 14 78 17.7 20.9 0.00 0.00 0.20 66 1007.9
20170226203149 14 99 16.1 19.3 0.00 0.00 0.20 68 1008.3
20170226203147 13 94 11.3 20.9 0.00 0.00 0.20 67 1008.3
20170226202852 13 94 11.3 20.9 0.00 0.00 0.20 67 1008.3
20170226202511 13 90 14.5 17.7 0.00 0.00 0.20 68 1008.2
20170226202245 13 119 11.3 16.1 0.00 0.00 0.20 70 1008.4
20170226201944 13 119 11.3 16.1 0.00 0.00 0.20 70 1008.4
20170226201901 13 108 9.7 20.9 0.00 0.00 0.20 70 1008.5
20170226201643 13 108 9.7 20.9 0.00 0.00 0.20 70 1008.5
20170226200943 13 128 12.9 19.3 0.00 0.00 0.20 69 1008.7
20170226200741 13 128 12.9 19.3 0.00 0.00 0.20 69 1008.7
20170226200139 13 130 6.4 20.9 0.00 0.00 0.20 72 1008.9
20170226195745 13 117 12.9 19.3 0.00 0.00 0.20 71 1009.0
20170226195535 13 117 12.9 19.3 0.00 0.00 0.20 71 1009.0
20170226195429 13 83 11.3 17.7 0.00 0.00 0.20 71 1009.0
20170226195235 13 83 11.3 17.7 0.00 0.00 0.20 71 1009.0
20170226195158 13 112 12.9 17.7 0.00 0.00 0.20 71 1009.1
20170226194820 13 105 11.3 20.9 0.00 0.00 0.20 71 1008.9
20170226194632 13 105 11.3 20.9 0.00 0.00 0.20 71 1008.9
20170226194312 12 72 11.3 17.7 0.00 0.00 0.20 73 1009.0
20170226194029 12 72 11.3 17.7 0.00 0.00 0.20 73 1009.0
20170226193932 12 90 11.3 17.7 0.00 0.00 0.20 72 1009.0
20170226193730 12 90 11.3 17.7 0.00 0.00 0.20 72 1009.0
20170226193415 12 123 9.7 19.3 0.00 0.00 0.20 73 1009.2
20170226193126 12 123 9.7 19.3 0.00 0.00 0.20 73 1009.2
20170226193032 12 90 17.7 20.9 0.00 0.00 0.20 72 1009.2
20170226192825 12 90 17.7 20.9 0.00 0.00 0.20 72 1009.2
20170226192806 12 99 14.5 19.3 0.00 0.00 0.20 72 1009.1
20170226192423 12 101 9.7 19.3 0.00 0.00 0.20 73 1009.3
20170226192223 12 101 9.7 19.3 0.00 0.00 0.20 73 1009.3
20170226191629 11 78 16.1 24.1 0.00 0.00 0.20 74 1009.4
20170226191621 11 99 11.3 24.1 0.00 0.00 0.20 75 1009.4
20170226190956 11 72 11.3 19.3 0.00 0.00 0.20 76 1009.6
20170226190717 11 72 11.3 19.3 0.00 0.00 0.20 76 1009.6
20170226190325 11 92 16.1 22.5 0.00 0.00 0.20 76 1009.5
20170226190116 11 108 11.3 14.5 0.00 0.00 0.20 79 1009.6
20170226185814 11 108 11.3 14.5 0.00 0.00 0.20 79 1009.6
20170226185812 11 95 12.9 20.9 0.00 0.00 0.20 79 1009.5
20170226185540 11 83 17.7 20.9 0.00 0.00 0.20 79 1009.2
20170226185513 11 95 12.9 20.9 0.00 0.00 0.20 79 1009.5
20170226185212 11 83 17.7 20.9 0.00 0.00 0.20 79 1009.2
20170226185155 11 78 19.3 19.3 0.00 0.00 0.20 78 1009.3
20170226184908 11 87 14.5 19.3 0.00 0.00 0.20 78 1009.5
20170226184609 11 87 14.5 19.3 0.00 0.00 0.20 78 1009.5
20170226184314 11 77 6.4 14.5 0.00 0.00 0.20 78 1010.1
20170226184309 11 90 12.9 14.5 0.00 0.00 0.20 78 1009.7
20170226184011 11 77 6.4 14.5 0.00 0.00 0.20 78 1010.1
20170226184007 11 85 8.0 12.9 0.00 0.00 0.20 80 1010.0
20170226183708 11 85 8.0 12.9 0.00 0.00 0.20 80 1010.0
20170226183506 10 99 11.3 11.3 0.00 0.00 0.20 79 1009.9
20170226183431 10 99 11.3 11.3 0.00 0.00 0.20 79 1009.9
20170226183105 10 99 11.3 11.3 0.00 0.00 0.20 79 1009.9
20170226183022 10 67 4.8 12.9 0.00 0.00 0.20 79 1009.9
20170226182803 10 67 4.8 12.9 0.00 0.00 0.20 79 1009.9
20170226182737 10 96 6.4 12.9 0.00 0.00 0.20 79 1010.1
20170226182502 10 96 6.4 12.9 0.00 0.00 0.20 79 1010.1
20170226182442 10 85 8.0 11.3 0.00 0.00 0.20 79 1010.1
20170226182220 11 85 11.3 11.3 0.00 0.00 0.20 79 1010.1
20170226182201 10 85 8.0 11.3 0.00 0.00 0.20 79 1010.1
20170226181900 11 85 11.3 11.3 0.00 0.00 0.20 79 1010.1
20170226181859 10 81 4.8 11.3 0.00 0.00 0.20 79 1010.2
20170226181610 11 90 4.8 11.3 0.00 0.00 0.20 79 1010.3
20170226181602 10 81 4.8 11.3 0.00 0.00 0.20 79 1010.2
20170226181258 11 90 4.8 11.3 0.00 0.00 0.20 79 1010.3
20170226181244 11 83 6.4 11.3 0.00 0.00 0.20 79 1010.2
20170226180956 11 83 6.4 11.3 0.00 0.00 0.20 79 1010.2
20170226180913 11 81 6.4 11.3 0.00 0.00 0.20 79 1010.4
20170226180655 11 81 6.4 11.3 0.00 0.00 0.20 79 1010.4
20170226180610 11 92 3.2 9.7 0.00 0.00 0.20 81 1010.3
20170226180356 11 92 3.2 9.7 0.00 0.00 0.20 81 1010.3
20170226180337 11 101 4.8 6.4 0.00 0.00 0.20 82 1010.3
20170226180053 11 101 4.8 6.4 0.00 0.00 0.20 82 1010.3
20170226175809 10 146 1.6 3.2 0.00 0.00 0.20 83 1010.4
20170226175753 11 78 1.6 6.4 0.00 0.00 0.20 82 1010.2
20170226175452 10 146 1.6 3.2 0.00 0.00 0.20 83 1010.4
20170226175441 10 128 4.8 8.0 0.00 0.00 0.20 83 1010.3
20170226175150 10 128 4.8 8.0 0.00 0.00 0.20 83 1010.3
20170226175134 10 101 4.8 6.4 0.00 0.00 0.20 83 1010.3
20170226174848 10 101 4.8 6.4 0.00 0.00 0.20 83 1010.3
20170226174801 10 92 1.6 8.0 0.00 0.00 0.20 83 1010.2
20170226174547 10 92 1.6 8.0 0.00 0.00 0.20 83 1010.2
20170226174247 10 90 8.0 8.0 0.00 0.00 0.20 84 1010.3
20170226174210 10 94 6.4 6.4 0.00 0.00 0.20 85 1010.2
20170226173948 10 123 3.2 6.4 0.00 0.00 0.20 85 1010.2
20170226173945 10 94 6.4 6.4 0.00 0.00 0.20 85 1010.2
20170226173645 10 123 3.2 6.4 0.00 0.00 0.20 85 1010.2
20170226173640 10 137 1.6 9.7 0.00 0.00 0.20 85 1010.2
20170226173343 10 137 1.6 9.7 0.00 0.00 0.20 85 1010.2
20170226173323 10 135 1.6 4.8 0.00 0.00 0.20 87 1010.0
20170226173043 10 135 1.6 4.8 0.00 0.00 0.20 87 1010.0
20170226172950 9 117 3.2 8.0 0.00 0.00 0.20 87 1010.0
20170226172741 9 117 3.2 8.0 0.00 0.00 0.20 87 1010.0
20170226172452 9 101 4.8 8.0 0.00 0.00 0.20 87 1010.0
20170226172139 9 101 4.8 8.0 0.00 0.00 0.20 87 1010.0
20170226171819 8 92 6.4 9.7 0.00 0.00 0.20 87 1009.8
20170226171536 8 92 6.4 9.7 0.00 0.00 0.20 87 1009.8
20170226171235 8 110 6.4 9.7 0.00 0.00 0.20 87 1010.0
20170226171220 8 83 9.7 16.1 0.00 0.00 0.20 86 1010.1
20170226170934 8 83 9.7 16.1 0.00 0.00 0.20 86 1010.1
20170226170930 8 90 9.7 16.1 0.00 0.00 0.20 87 1009.7
20170226170644 8 103 9.7 17.7 0.00 0.00 0.20 88 1009.9
20170226170633 8 90 9.7 16.1 0.00 0.00 0.20 87 1009.7
20170226170332 8 103 9.7 17.7 0.00 0.00 0.20 88 1009.9
20170226170320 8 99 11.3 17.7 0.00 0.00 0.20 89 1009.8
20170226170031 8 99 11.3 17.7 0.00 0.00 0.20 89 1009.8
20170226170025 8 90 11.3 11.3 0.00 0.00 0.20 90 1009.8
20170226165745 8 90 11.3 12.9 0.00 0.00 0.20 91 1009.7
20170226165730 8 90 11.3 11.3 0.00 0.00 0.20 90 1009.8
20170226165429 8 90 11.3 12.9 0.00 0.00 0.20 91 1009.7
20170226165128 8 78 6.4 12.9 0.00 0.00 0.20 91 1009.7
20170226165056 8 92 4.8 9.7 0.00 0.00 0.20 91 1009.8
20170226164801 8 78 8.0 8.0 0.00 0.00 0.20 92 1009.6
20170226164525 8 78 8.0 8.0 0.00 0.00 0.20 92 1009.6
20170226164226 7 83 6.4 8.0 0.00 0.00 0.20 92 1009.4
20170226164126 7 76 4.8 9.7 0.00 0.00 0.20 92 1009.5
20170226163923 7 76 4.8 9.7 0.00 0.00 0.20 92 1009.5
20170226163623 7 94 8.0 8.0 0.00 0.00 0.20 92 1009.5
20170226163612 7 81 4.8 8.0 0.00 0.00 0.20 92 1009.4
20170226163321 7 81 4.8 8.0 0.00 0.00 0.20 92 1009.4
20170226163020 7 121 1.6 9.7 0.00 0.00 0.20 92 1009.2
20170226162917 7 81 9.7 9.7 0.00 0.00 0.20 93 1009.2
20170226162719 7 81 9.7 9.7 0.00 0.00 0.20 93 1009.2
20170226162645 7 87 6.4 12.9 0.00 0.00 0.20 93 1009.3
20170226162419 7 87 6.4 12.9 0.00 0.00 0.20 93 1009.3
20170226162411 7 81 4.8 11.3 0.00 0.00 0.20 93 1009.3
20170226162119 7 81 4.8 11.3 0.00 0.00 0.20 93 1009.3
20170226162032 6 85 8.0 11.3 0.00 0.00 0.20 93 1009.3
20170226161831 6 63 8.0 11.3 0.00 0.00 0.20 93 1009.2
20170226161815 6 85 8.0 11.3 0.00 0.00 0.20 93 1009.3
20170226161516 6 81 6.4 8.0 0.00 0.00 0.20 94 1009.3
20170226161514 6 63 8.0 11.3 0.00 0.00 0.20 93 1009.2
20170226161215 6 81 6.4 8.0 0.00 0.00 0.20 94 1009.3
20170226161213 6 85 6.4 9.7 0.00 0.00 0.20 94 1009.2
20170226160913 6 85 6.4 9.7 0.00 0.00 0.20 94 1009.2
20170226160350 6 112 4.8 6.4 0.00 0.00 0.20 94 1009.2
20170226160311 6 87 9.7 11.3 0.00 0.00 0.20 94 1009.2
20170226160009 6 112 4.8 6.4 0.00 0.00 0.20 94 1009.2
20170226155937 6 85 4.8 14.5 0.00 0.00 0.20 94 1009.1
20170226155708 6 85 4.8 14.5 0.00 0.00 0.20 94 1009.1
20170226155614 6 78 11.3 14.5 0.00 0.00 0.20 94 1009.0
20170226155409 6 78 11.3 14.5 0.00 0.00 0.20 94 1009.0
20170226155347 6 90 8.0 11.3 0.00 0.00 0.20 94 1009.0
20170226155105 6 90 8.0 11.3 0.00 0.00 0.20 94 1009.0
20170226154808 6 85 6.4 11.3 0.00 0.00 0.20 94 1008.9
20170226154503 6 85 6.4 11.3 0.00 0.00 0.20 94 1008.9